[[{"header":{"parameterUnit":"m.s-1","parameterCategory":1,"la1":30.2991,"la2":30.254,"lo1":-89.0895,"lo2":-89.0444,"dy":0.0017,"dx":0.0017,"nx":28,"ny":28,"refTime":"2023-07-27T09:00:00:Z","depth":0,"parameterNumber":2,"parameterNumberName":"U-component_of_WINDS"},"data":[0,0,0,0,0,0,0,0,0,0,0,0,0,0,0,0,0,0,0,0,0,0,0,0,0,0,0,0,0,0,0,0,0,0,0,0,0,0,0,0,0,0,0,0,0,0,0,0,0,0,0,0,0,0,0,0,0,0,1.1165,1.1165,0,1.1194,1.1194,1.1195,1.1187,1.1186,1.1185,1.1185,1.1215,1.1217,1.1218,0,0,0,0,0,0,0,0,0,0,0,0,0,1.1103,1.1104,1.1165,1.1165,1.1165,1.1194,1.1195,1.1195,1.1187,1.1186,1.1185,1.1185,1.1215,1.1217,1.1218,0,0,0,0,0,0,0,0,0,0,0,0,0,1.1131,1.1104,1.1165,1.1165,1.1165,1.1194,1.1195,1.1195,1.1187,1.1186,1.1185,1.1184,1.1214,1.1216,1.1218,1.1249,0,0,1.1225,1.1226,0,0,0,0,0,0,0,0,1.1129,1.1133,1.1164,1.1165,1.1165,1.1186,1.1184,1.1213,1.1187,1.1179,1.1185,1.1184,1.1206,1.1209,1.1216,1.1251,1.1252,1.1225,1.1226,1.1227,1.1228,0,0,0,0,0,0,0,1.1127,1.1132,1.1176,1.1165,1.1165,1.1164,1.1167,1.1189,1.1197,1.1179,1.1179,1.1182,1.1206,1.1215,1.1217,1.1252,1.1225,1.1227,1.1228,1.1229,1.1314,1.1315,0,0,0,0,0,0,1.1125,1.113,1.1175,1.1177,1.1145,1.1166,1.1169,1.118,1.1197,1.1199,1.1183,1.1182,1.1211,1.1215,1.1218,1.1256,1.1227,1.1229,1.123,1.1313,1.1314,1.1315,0,0,0,0,0,0,1.1124,1.1129,1.1174,1.1154,1.1159,1.1168,1.118,1.1181,1.1189,1.12,1.1201,1.119,1.1211,1.1215,1.1242,1.1256,1.123,1.1232,1.1312,1.1313,1.1315,1.133,0,0,0,0,0,0,1.1122,1.1129,1.114,1.1154,1.116,1.1197,1.1181,1.1182,1.1193,1.1191,1.1206,1.1208,1.121,1.1239,1.1244,1.1259,1.1233,1.131,1.1312,1.1314,1.1328,1.1332,1.1335,0,0,0,0,0,1.112,1.1143,1.114,1.1146,1.1175,1.1198,1.1201,1.1204,1.1194,1.1206,1.1213,1.1208,1.1254,1.1241,1.1247,1.1263,1.1309,1.1312,1.1314,1.1327,1.1331,1.1335,0,0,0,0,0,0,1.113,1.1145,1.1142,1.1171,1.1183,1.1196,1.1211,1.1208,1.1224,1.1222,1.1224,1.1227,1.1254,1.1261,1.1247,1.1294,1.128,1.1284,1.1288,1.1293,1.1296,1.1294,1.1235,0,0,0,0,0,1.1136,1.1153,1.1165,1.1189,1.1196,1.1202,1.1213,1.1213,1.1226,1.1231,1.124,1.1253,1.1271,1.1282,1.1299,1.133,1.1333,1.1344,1.1347,1.135,1.1353,1.137,1.1375,1.1323,1.1323,1.1323,0,0,1.1148,1.1158,1.1169,1.1192,1.1201,1.122,1.1207,1.1226,1.124,1.1234,1.126,1.1267,1.1281,1.131,1.1324,1.1317,1.1368,1.1353,1.1355,1.1356,1.1373,1.1378,1.1382,1.1324,1.1324,1.1324,0,0,1.1179,1.1188,1.121,1.122,1.1235,1.1239,1.1244,1.1258,1.1263,1.1288,1.1285,1.1301,1.1331,1.1342,1.1352,1.1388,1.1384,1.1393,1.1411,1.1428,1.1432,1.1436,1.1449,1.1453,1.1396,1.1396,1.1397,0,1.1192,1.1219,1.1221,1.1241,1.1252,1.1248,1.127,1.1279,1.1299,1.1307,1.1299,1.1337,1.1347,1.1378,1.1387,1.1395,1.1401,1.1391,1.1431,1.1435,1.1438,1.1451,1.1456,1.1398,1.1397,1.1397,1.1397,0,1.1234,1.1253,1.1269,1.1288,1.13,1.1321,1.1327,1.1339,1.1339,1.1345,1.1371,1.1383,1.1402,1.141,1.141,1.1442,1.1437,1.1431,1.1417,1.1444,1.1456,1.1461,1.1399,1.1399,1.1398,1.1398,0,0,1.1272,1.1293,1.1298,1.1307,1.1324,1.1339,1.136,1.1379,1.139,1.1404,1.1422,1.1448,1.1442,1.1453,1.1454,1.1469,1.1498,1.1461,1.1461,1.1467,1.1534,1.1538,1.1544,1.1495,1.1496,1.1497,1.1532,0,1.1304,1.1341,1.1344,1.1378,1.1396,1.1393,1.1411,1.1424,1.143,1.1446,1.1453,1.1471,1.1462,1.1469,1.1483,1.1491,1.1511,1.1489,1.1512,1.1513,1.1508,1.155,1.1555,1.1587,1.1537,1.1538,1.1538,0,1.1347,1.1362,1.1398,1.1412,1.142,1.1437,1.1455,1.147,1.1485,1.1488,1.1501,1.15,1.1523,1.1509,1.154,1.1524,1.1534,1.154,1.1541,1.1543,1.1527,1.1553,1.1598,1.1603,1.1546,1.1545,1.1545,0,1.1371,1.1401,1.1426,1.1433,1.1451,1.1463,1.1471,1.1485,1.1496,1.1512,1.152,1.1538,1.1548,1.1563,1.1567,1.1557,1.1598,1.1585,1.1602,1.1602,1.161,1.1609,1.1657,1.1617,1.1617,1.1617,1.1617,0,1.1407,1.1428,1.1437,1.1452,1.1477,1.148,1.1505,1.1512,1.1525,1.1542,1.154,1.1557,1.1562,1.1579,1.1583,1.1609,1.1613,1.1617,1.1617,1.1616,1.1616,1.1623,1.162,1.1618,1.1618,1.1618,1.1618,0,1.1437,1.1444,1.1471,1.1486,1.149,1.1508,1.1521,1.1536,1.1542,1.1564,1.1569,1.1579,1.1599,1.1606,1.163,1.1633,1.1662,1.1661,1.1657,1.1657,1.1674,1.1672,1.1727,1.1735,1.169,1.1691,1.1691,0,1.1459,1.1476,1.1493,1.1504,1.1513,1.1531,1.1543,1.1548,1.156,1.1578,1.1592,1.1612,1.1628,1.1661,1.167,1.1689,1.1688,1.1706,1.1691,1.169,1.1688,1.1687,1.1689,1.1709,1.1709,1.171,1.171,0,1.1498,1.15,1.1517,1.1536,1.155,1.1565,1.1579,1.1588,1.1595,1.1609,1.163,1.1643,1.1668,1.1688,1.1708,1.1716,1.1714,1.1715,1.172,1.1719,1.1716,1.1717,1.1665,1.1713,1.1713,1.1713,1.1713,1.1712,1.1525,1.154,1.1554,1.1573,1.1585,1.1598,1.1613,1.1621,1.1639,1.166,1.1662,1.1684,1.1699,1.1725,1.1735,1.1753,1.1747,1.1755,1.1756,1.1758,1.1759,1.1713,1.1756,1.1756,1.1756,1.1756,1.1756,0,1.1563,1.1572,1.159,1.161,1.1625,1.1623,1.1639,1.1652,1.1671,1.1685,1.1702,1.1726,1.1746,1.1757,1.1777,1.1789,1.1789,1.1794,1.1793,1.1795,1.1763,1.1756,1.1794,1.1794,1.1794,1.1794,1.1794,1.1794,1.1585,1.161,1.1615,1.1646,1.1655,1.1677,1.1686,1.1699,1.171,1.1737,1.1754,1.1761,1.1774,1.1795,1.1813,1.1816,1.1823,1.1829,1.1831,1.1801,1.1797,1.1793,1.1787,1.1831,1.1831,1.1862,1.1862,1.1862]},{"header":{"parameterUnit":"m.s-1","parameterCategory":1,"la1":30.2991,"la2":30.254,"lo1":-89.0895,"lo2":-89.0444,"dy":0.0017,"dx":0.0017,"nx":28,"ny":28,"refTime":"2023-07-27T09:00:00:Z","depth":0,"parameterNumber":3,"parameterNumberName":"V-component_of_WINDS"},"data":[0,0,0,0,0,0,0,0,0,0,0,0,0,0,0,0,0,0,0,0,0,0,0,0,0,0,0,0,0,0,0,0,0,0,0,0,0,0,0,0,0,0,0,0,0,0,0,0,0,0,0,0,0,0,0,0,0,0,-1.3763,-1.3763,0,-1.3702,-1.3701,-1.37,-1.3618,-1.3617,-1.3616,-1.3614,-1.3551,-1.3551,-1.355,0,0,0,0,0,0,0,0,0,0,0,0,0,-1.3812,-1.3811,-1.3763,-1.3763,-1.3762,-1.3702,-1.3701,-1.37,-1.3619,-1.3617,-1.3615,-1.3614,-1.3551,-1.3551,-1.355,0,0,0,0,0,0,0,0,0,0,0,0,0,-1.3775,-1.3811,-1.3763,-1.3714,-1.3709,-1.3702,-1.3701,-1.37,-1.3619,-1.3617,-1.3615,-1.3613,-1.3552,-1.3551,-1.355,-1.3587,0,0,-1.3548,-1.3548,0,0,0,0,0,0,0,0,-1.3777,-1.3773,-1.3722,-1.3717,-1.3712,-1.3666,-1.3695,-1.3662,-1.3619,-1.3653,-1.3614,-1.3612,-1.3591,-1.3587,-1.358,-1.3584,-1.3582,-1.3548,-1.3548,-1.3548,-1.3548,0,0,0,0,0,0,0,-1.378,-1.3775,-1.3739,-1.3721,-1.3715,-1.3695,-1.3688,-1.3688,-1.3634,-1.365,-1.3644,-1.3638,-1.3588,-1.3581,-1.3578,-1.3581,-1.3548,-1.3548,-1.3547,-1.3547,-1.3615,-1.3617,0,0,0,0,0,0,-1.3789,-1.3778,-1.3741,-1.3737,-1.374,-1.3696,-1.3688,-1.3682,-1.3634,-1.3625,-1.3639,-1.3634,-1.3583,-1.3579,-1.3575,-1.3617,-1.3548,-1.3547,-1.3547,-1.3613,-1.3616,-1.3618,0,0,0,0,0,0,-1.3791,-1.3787,-1.3743,-1.3756,-1.3749,-1.3697,-1.3692,-1.3682,-1.3675,-1.3626,-1.3616,-1.3642,-1.3581,-1.3576,-1.3586,-1.3614,-1.3547,-1.3546,-1.3611,-1.3614,-1.3617,-1.37,0,0,0,0,0,0,-1.3792,-1.3788,-1.3801,-1.3757,-1.3748,-1.3754,-1.3694,-1.3683,-1.3674,-1.3667,-1.3626,-1.3617,-1.3579,-1.3587,-1.3585,-1.3612,-1.3546,-1.3608,-1.3612,-1.3616,-1.3695,-1.3706,-1.3716,0,0,0,0,0,-1.3794,-1.3826,-1.3802,-1.3798,-1.3763,-1.3756,-1.3751,-1.3707,-1.3677,-1.369,-1.3659,-1.3618,-1.3611,-1.3589,-1.3586,-1.3613,-1.3606,-1.3611,-1.3616,-1.369,-1.3704,-1.3715,0,0,0,0,0,0,-1.3874,-1.3819,-1.3792,-1.381,-1.3788,-1.3742,-1.3757,-1.3722,-1.3709,-1.3702,-1.3647,-1.3639,-1.3656,-1.3635,-1.3611,-1.3647,-1.3602,-1.3607,-1.366,-1.3673,-1.3683,-1.3688,-1.3545,0,0,0,0,0,-1.3894,-1.3892,-1.3844,-1.3865,-1.3856,-1.3809,-1.3804,-1.3772,-1.3747,-1.3737,-1.3707,-1.3685,-1.3678,-1.3674,-1.3664,-1.3691,-1.3682,-1.3709,-1.3719,-1.3728,-1.3733,-1.3748,-1.376,-1.3634,-1.3634,-1.3634,0,0,-1.3934,-1.3904,-1.3906,-1.388,-1.386,-1.386,-1.3801,-1.3803,-1.3804,-1.3737,-1.3745,-1.3722,-1.3694,-1.3713,-1.372,-1.3696,-1.3766,-1.3734,-1.3742,-1.3741,-1.3754,-1.3766,-1.3777,-1.3637,-1.3637,-1.3636,0,0,-1.4009,-1.3985,-1.4001,-1.3982,-1.3952,-1.3921,-1.3925,-1.3885,-1.3867,-1.3874,-1.3825,-1.3825,-1.3813,-1.3796,-1.3786,-1.3857,-1.382,-1.3855,-1.391,-1.3925,-1.3935,-1.3943,-1.3971,-1.3981,-1.386,-1.386,-1.386,0,-1.4063,-1.4061,-1.4013,-1.4019,-1.401,-1.3951,-1.3968,-1.3952,-1.3921,-1.3916,-1.389,-1.3876,-1.3853,-1.3868,-1.3886,-1.3879,-1.3883,-1.3859,-1.3937,-1.3945,-1.3953,-1.3978,-1.3988,-1.3865,-1.3864,-1.3864,-1.3863,0,-1.413,-1.413,-1.4146,-1.4119,-1.4111,-1.4122,-1.4077,-1.4076,-1.4045,-1.4017,-1.4026,-1.3997,-1.3982,-1.3983,-1.3952,-1.3995,-1.3981,-1.3947,-1.3901,-1.397,-1.3993,-1.4002,-1.3871,-1.387,-1.3868,-1.3867,0,0,-1.4251,-1.4199,-1.4206,-1.4194,-1.4158,-1.4157,-1.4166,-1.4152,-1.4153,-1.4134,-1.4141,-1.4134,-1.4103,-1.4092,-1.4059,-1.4072,-1.4133,-1.4036,-1.4035,-1.4057,-1.4181,-1.4207,-1.4219,-1.4109,-1.411,-1.4111,-1.4184,0,-1.432,-1.4333,-1.4291,-1.4315,-1.4316,-1.4261,-1.427,-1.4249,-1.4224,-1.4221,-1.4193,-1.419,-1.4148,-1.4141,-1.4152,-1.4123,-1.4157,-1.4117,-1.4116,-1.4117,-1.4126,-1.4231,-1.4258,-1.4328,-1.4192,-1.4193,-1.4194,0,-1.44,-1.4387,-1.4412,-1.4377,-1.4375,-1.4383,-1.4368,-1.4366,-1.4342,-1.4323,-1.4312,-1.4275,-1.4283,-1.4239,-1.4251,-1.4225,-1.4222,-1.4208,-1.421,-1.4208,-1.416,-1.4233,-1.4348,-1.4359,-1.4208,-1.4207,-1.4206,0,-1.4489,-1.4477,-1.449,-1.4481,-1.444,-1.4448,-1.4431,-1.4406,-1.4401,-1.4387,-1.4384,-1.4372,-1.4366,-1.4358,-1.4319,-1.429,-1.4336,-1.4288,-1.4321,-1.4323,-1.4333,-1.4333,-1.4451,-1.4331,-1.433,-1.433,-1.433,0,-1.457,-1.4587,-1.453,-1.4538,-1.4557,-1.451,-1.453,-1.4507,-1.4486,-1.449,-1.4442,-1.4447,-1.4395,-1.4394,-1.4364,-1.438,-1.4377,-1.4362,-1.4354,-1.4367,-1.4369,-1.4365,-1.4359,-1.4333,-1.4332,-1.4332,-1.4331,0,-1.4671,-1.4633,-1.4644,-1.4606,-1.4596,-1.4612,-1.4579,-1.4586,-1.4559,-1.4565,-1.4563,-1.4521,-1.4518,-1.4479,-1.4467,-1.4447,-1.4475,-1.4457,-1.4483,-1.4478,-1.4514,-1.4512,-1.4633,-1.4648,-1.4518,-1.4519,-1.452,0,-1.4725,-1.4738,-1.4701,-1.4701,-1.4686,-1.4686,-1.4681,-1.4636,-1.4633,-1.4609,-1.4619,-1.4613,-1.4605,-1.4604,-1.4573,-1.4565,-1.4547,-1.459,-1.4545,-1.4559,-1.4549,-1.4549,-1.4551,-1.46,-1.4602,-1.4603,-1.4604,0,-1.4827,-1.4808,-1.4803,-1.4792,-1.4787,-1.4776,-1.4762,-1.4765,-1.4715,-1.4715,-1.4712,-1.4707,-1.4696,-1.4691,-1.4678,-1.4661,-1.4626,-1.4619,-1.4626,-1.464,-1.4655,-1.4649,-1.451,-1.4616,-1.4615,-1.4614,-1.4613,-1.4613,-1.4907,-1.4916,-1.4893,-1.4889,-1.4874,-1.4863,-1.4868,-1.4842,-1.4839,-1.4827,-1.4801,-1.4803,-1.4782,-1.476,-1.4747,-1.4749,-1.4727,-1.4737,-1.474,-1.4744,-1.4752,-1.4654,-1.4746,-1.4746,-1.4745,-1.4745,-1.4745,0,-1.5007,-1.499,-1.4987,-1.497,-1.4967,-1.4934,-1.4918,-1.4918,-1.492,-1.4903,-1.4898,-1.4896,-1.4892,-1.4861,-1.4853,-1.4861,-1.4844,-1.4861,-1.486,-1.4857,-1.4771,-1.4766,-1.4874,-1.4874,-1.4874,-1.4874,-1.4874,-1.4874,-1.5059,-1.5074,-1.5053,-1.5061,-1.5043,-1.5045,-1.5039,-1.5029,-1.5015,-1.5015,-1.5012,-1.4992,-1.497,-1.4961,-1.4956,-1.4947,-1.4947,-1.497,-1.4956,-1.4875,-1.4863,-1.4851,-1.4846,-1.497,-1.497,-1.5042,-1.5042,-1.5043]}]]